Vorticity
3 2 4 6 5 5 5 5 5 6 8 8 10 10 8 8 8 9 8 6 5 5 5 4 6 5 4 5 6 5 5 8 9 8 6 6 7 7 6 4 4 7 7 7 8 8 8 8 8 8 8 8 7 6 5 6 6 5 4 4 4 5 6 6 7 7 8 9 7 6 5 6 6 4 4 4 4 4 5 6 5 6 8 9 9
5 5 6 6 5 4 4 5 7 8 8 8 8 8 6 6 6 7 7 6 7 7 6 6 6 4 5 8 9 7 6 6 7 7 6 8 8 6 5 3 5 6 5 6 9 9 9 9 9 8 8 8 8 8 6 6 6 4 4 5 5 5 6 7 7 7 8 8 7 6 5 6 5 4 4 4 4 4 5 5 6 8 10 9 6
6 7 7 6 6 5 5 6 7 8 7 7 6 6 5 5 5 5 6 7 8 8 7 8 7 5 5 6 7 6 5 5 5 7 7 7 7 6 5 2 4 7 4 5 8 8 10 11 10 10 9 8 8 8 7 6 5 4 5 4 4 5 6 7 7 7 8 7 7 6 6 5 5 4 4 4 4 4 5 5 7 10 10 8 5
7 7 7 7 7 8 7 7 6 7 7 6 5 5 5 5 6 6 7 7 6 6 6 6 6 6 5 5 5 5 5 5 6 7 6 6 5 5 5 4 5 6 4 4 6 7 9 10 9 10 9 8 8 8 7 5 4 4 5 5 5 5 6 6 6 7 8 8 7 6 6 6 5 4 4 4 4 5 5 6 8 10 9 5 3
8 8 8 8 9 9 8 7 6 6 6 6 5 5 5 5 6 6 6 5 5 5 4 4 5 5 5 6 7 6 4 5 7 7 7 6 4 5 4 5 6 6 5 4 5 7 8 9 7 8 8 8 7 7 6 4 4 3 4 5 5 5 6 6 6 6 8 7 6 6 6 6 6 5 4 4 4 5 6 8 11 10 7 3 3
9 8 8 8 8 8 7 7 6 6 6 5 5 5 5 5 6 6 4 3 4 3 3 2 5 5 4 6 8 6 3 4 6 5 5 7 6 5 5 6 8 9 7 5 5 6 7 8 7 7 6 6 6 5 5 4 4 4 4 5 6 6 6 7 7 6 7 7 7 6 6 6 6 5 4 5 6 7 9 11 12 8 4 3 4
8 9 9 8 8 7 7 7 6 5 5 6 6 7 6 5 6 6 3 3 4 4 4 3 5 5 4 6 7 6 5 5 7 5 4 7 7 6 7 6 7 9 9 7 7 7 7 7 7 7 5 5 5 5 5 4 4 5 5 6 7 6 6 7 8 7 7 8 8 7 6 5 5 6 6 8 9 9 11 11 8 5 3 4 4
8 9 10 8 8 7 8 7 6 6 5 6 6 6 5 4 5 6 4 3 4 5 6 7 8 7 8 8 8 8 6 7 8 6 5 7 7 7 8 6 5 7 10 11 8 8 7 5 7 7 5 5 4 4 4 4 4 5 5 6 7 6 5 7 7 6 7 10 8 6 6 5 6 8 9 10 11 10 10 7 5 4 4 4 3
10 10 10 8 8 8 8 7 6 7 5 4 5 6 5 4 5 5 5 5 6 7 7 10 12 11 13 10 10 11 7 9 10 7 7 8 9 8 8 8 8 9 11 12 9 7 6 5 6 6 6 5 4 4 4 4 5 6 5 6 6 6 6 8 9 8 9 10 7 6 7 6 9 10 11 11 10 8 7 4 4 4 4 3 3
12 13 10 8 9 8 6 6 6 5 5 5 6 6 4 4 5 4 4 7 8 8 8 10 12 11 12 11 11 13 10 11 12 8 8 9 8 8 9 9 9 11 11 11 10 6 5 6 6 6 7 6 5 4 3 5 6 5 6 5 5 6 8 9 10 10 8 8 8 7 8 9 11 12 10 9 7 6 4 4 4 3 3 4 3
13 13 9 8 8 6 5 7 7 6 6 6 6 5 5 5 5 7 7 8 9 10 11 11 11 10 11 12 13 12 12 13 10 8 10 10 8 10 11 10 12 13 11 10 10 6 6 7 6 7 7 8 7 5 4 4 4 5 6 5 6 8 10 10 10 10 8 8 8 8 10 11 12 10 8 6 5 4 4 4 4 4 4 4 5
13 11 8 7 7 5 6 7 6 7 6 4 5 6 6 7 7 9 9 7 9 9 10 10 10 10 10 12 12 11 11 12 10 8 10 11 10 11 11 11 14 13 12 11 9 7 7 7 7 8 8 9 6 5 7 6 3 5 6 7 8 10 11 11 10 11 10 9 9 10 11 10 8 7 5 4 4 4 4 4 4 4 5 7 9
9 8 6 6 6 6 6 6 6 3 2 3 5 6 5 7 7 7 8 6 8 9 8 9 10 10 10 11 10 9 9 10 10 10 10 12 11 11 12 13 12 12 11 11 10 9 8 8 8 8 9 8 6 7 8 5 4 6 8 10 11 12 12 10 10 12 11 11 11 11 10 7 5 5 4 4 4 4 4 4 5 6 8 9 9
7 6 6 6 7 7 6 5 5 3 3 6 6 6 6 7 5 5 8 7 8 10 10 9 9 10 10 9 8 8 9 9 8 9 10 11 12 12 11 9 6 6 6 7 8 8 8 8 9 9 9 7 6 6 5 4 6 9 10 11 11 12 12 9 10 12 11 11 10 8 6 5 5 5 5 4 4 4 5 6 7 9 10 9 10
6 5 6 7 7 7 6 5 5 5 6 6 7 7 6 5 5 7 9 9 10 10 10 10 9 9 9 9 9 7 8 10 8 7 7 7 7 9 10 9 7 6 6 7 8 9 8 8 10 9 7 6 5 4 5 8 10 11 11 11 11 11 11 10 11 11 9 8 6 5 4 4 5 5 5 5 5 5 6 8 9 10 10 11 12
5 6 7 5 7 5 3 5 5 5 6 6 6 6 5 5 5 8 9 9 10 10 9 9 8 8 9 9 10 10 10 10 8 8 7 6 5 4 5 8 9 10 9 9 10 11 9 9 10 8 6 4 4 6 9 11 11 11 11 11 11 11 10 9 10 8 6 5 3 4 4 5 6 6 6 6 7 7 8 9 10 10 11 11 9
5 5 6 4 4 4 4 5 5 5 6 7 7 6 6 7 7 8 9 9 8 8 8 8 8 8 8 9 9 9 9 7 6 6 6 8 8 6 5 7 9 10 11 10 11 11 11 10 8 5 4 4 7 11 11 10 11 11 10 10 10 9 8 7 7 6 4 4 4 5 6 7 6 7 7 7 8 8 9 10 10 10 9 7 5
5 5 6 5 4 4 5 6 6 6 6 9 9 8 8 7 9 8 7 7 7 7 7 7 7 8 7 6 6 6 6 6 6 6 6 7 8 8 8 9 9 9 12 13 12 11 10 8 4 4 5 7 10 10 9 9 10 10 8 8 7 7 7 5 5 4 4 5 5 6 6 7 8 8 8 8 9 9 10 10 9 7 6 5 5
5 6 6 5 5 5 5 7 7 7 7 9 8 7 7 7 8 8 8 7 7 7 6 7 7 7 6 5 5 5 6 6 7 7 8 8 8 9 9 8 8 8 11 13 11 9 7 5 4 5 7 10 10 8 7 9 8 7 6 6 5 6 5 4 5 5 5 6 6 7 8 9 9 9 9 9 9 9 9 8 6 5 5 6 6
6 6 7 5 7 7 6 8 8 8 8 8 7 7 7 7 9 10 10 7 7 7 6 8 8 7 5 6 6 6 8 7 8 8 8 8 8 9 8 8 8 8 9 9 8 6 5 5 6 8 10 10 9 8 7 8 7 5 5 5 5 5 4 5 6 6 7 7 8 10 11 10 10 10 10 9 8 8 7 6 6 6 7 8 8
6 7 8 5 6 7 6 9 7 6 7 5 6 7 6 7 8 10 9 7 7 7 8 8 7 6 5 6 6 7 9 9 9 8 8 8 9 9 8 8 8 9 8 7 6 5 6 7 9 11 11 9 7 7 7 6 5 5 5 5 5 6 7 6 7 8 8 9 10 10 9 10 10 10 9 7 7 6 5 6 7 7 8 9 9
6 8 9 6 7 7 5 8 7 6 6 5 6 9 8 7 8 9 8 7 7 7 8 8 6 6 7 9 9 9 10 10 10 9 8 7 9 10 9 8 8 9 7 7 7 8 9 9 11 11 8 6 5 6 6 5 5 6 5 5 6 7 8 8 8 8 8 8 8 8 10 12 11 9 6 5 5 5 6 7 8 8 9 9 9
6 7 8 6 8 6 2 6 7 6 5 4 7 9 7 8 9 8 9 8 7 7 6 6 6 7 9 10 10 10 10 11 11 10 8 7 9 10 10 10 10 10 9 9 10 9 9 10 9 8 6 5 5 5 5 5 6 6 6 6 7 8 9 8 7 6 7 7 9 12 13 11 8 6 5 5 5 6 7 7 8 9 9 9 9
7 8 7 6 8 6 3 5 5 3 5 6 6 8 7 9 9 7 8 9 8 7 5 4 5 8 9 9 9 9 10 10 11 10 9 9 10 10 11 11 10 10 10 10 10 9 8 8 7 5 5 5 5 6 6 6 6 6 6 7 7 9 8 6 6 7 9 11 13 13 10 7 5 5 5 5 5 6 7 8 9 9 9 9 9
6 8 8 6 8 7 5 6 7 7 6 6 5 6 8 7 7 5 6 8 9 9 7 7 7 9 11 9 8 8 9 9 10 11 10 10 10 10 10 9 9 9 8 9 8 8 7 5 5 5 5 5 5 6 7 6 6 6 7 7 7 8 7 6 8 10 12 13 12 9 6 5 5 5 5 5 5 5 7 8 9 9 9 8 8
6 8 8 6 8 6 6 6 7 7 4 5 6 6 7 6 6 5 6 7 10 10 9 10 8 10 11 9 8 8 8 8 10 10 8 8 8 8 8 8 7 7 6 6 6 5 5 4 3 4 5 6 6 5 5 5 6 6 7 7 7 8 8 9 10 11 12 11 8 6 5 5 5 5 4 4 4 5 6 7 8 8 8 8 8
5 7 5 5 8 4 4 6 5 5 4 7 7 7 7 6 7 6 6 8 9 9 8 9 9 9 10 9 9 8 7 7 7 6 5 6 8 7 7 7 6 7 6 6 6 5 4 4 4 6 7 7 6 6 5 5 7 7 6 6 7 9 10 10 11 12 11 9 6 5 5 4 4 4 4 4 4 5 6 6 7 8 9 9 8
5 6 4 5 8 3 3 5 6 6 5 6 5 5 7 7 7 7 7 8 9 8 8 8 7 8 9 8 9 9 8 7 5 4 5 7 7 5 5 5 5 6 6 4 4 4 5 5 6 8 6 5 6 7 6 5 7 7 6 7 8 9 10 10 11 12 9 6 5 4 4 4 4 4 4 4 4 4 5 6 8 8 9 8 8
5 5 4 6 6 3 3 4 5 6 5 7 6 5 7 6 5 6 5 5 7 8 9 8 7 7 6 7 8 8 8 7 6 6 6 6 5 4 5 4 4 7 7 6 5 7 10 7 6 7 5 6 6 6 6 6 6 6 6 7 8 7 9 11 12 10 7 4 4 4 4 4 4 4 4 4 4 4 5 6 7 7 7 7 7
6 6 4 5 6 4 3 4 5 6 6 6 6 5 6 5 4 6 5 5 6 7 7 7 7 6 5 6 7 7 7 6 6 6 6 6 6 5 6 6 7 8 7 8 7 7 9 6 4 6 6 7 7 6 6 7 7 6 5 6 8 8 10 13 12 8 4 4 4 4 4 4 4 4 4 4 4 4 5 6 6 6 5 5 5
7 7 6 6 6 5 4 5 5 4 5 5 6 6 5 6 6 7 6 6 7 7 7 8 7 6 5 5 6 7 7 6 5 6 7 7 7 6 6 7 7 7 5 6 6 5 6 6 5 6 8 7 7 7 5 7 8 6 5 6 7 9 12 13 10 5 4 4 4 4 4 4 4 4 4 4 4 4 5 5 5 4 4 4 4
7 6 7 7 7 7 6 5 5 4 4 5 6 6 7 7 7 8 7 8 8 7 8 8 8 7 7 6 6 7 7 7 5 6 7 6 7 8 7 7 7 6 5 5 6 6 4 6 6 7 9 6 5 6 6 8 8 7 6 5 8 10 13 11 7 5 5 5 4 4 4 4 5 5 4 4 4 4 5 4 3 2 2 3 2
7 7 7 7 7 7 7 6 5 5 4 5 6 6 7 7 8 8 8 8 8 8 9 8 9 9 8 8 7 8 8 7 7 7 7 6 7 8 7 7 7 6 6 5 5 6 5 6 7 7 8 6 5 6 7 8 7 7 5 5 9 12 13 10 6 6 5 4 5 4 3 3 4 5 5 4 4 4 3 2 1 2 1 1 2
6 7 7 7 7 6 6 7 6 6 6 6 6 7 7 7 8 8 8 8 7 8 8 8 9 9 9 9 8 9 9 8 7 7 6 7 7 7 7 8 6 6 7 6 5 5 5 6 7 7 5 3 4 6 7 7 7 6 5 6 11 13 13 8 6 7 5 4 4 4 4 4 4 5 5 4 4 3 2 2 1 1 1 1 2
6 7 7 7 7 7 7 7 7 7 7 6 7 7 7 7 7 8 7 7 7 7 8 8 7 8 8 8 8 9 9 9 8 6 7 7 7 7 7 6 5 4 6 6 6 6 7 6 6 7 5 4 7 9 8 7 7 6 5 7 11 14 12 6 6 7 5 4 3 4 4 4 4 4 4 3 3 3 2 2 2 2 1 1 2
6 6 7 7 7 8 7 8 8 8 8 8 8 7 7 8 7 7 7 7 7 6 6 7 7 7 7 7 7 8 8 8 8 7 9 9 8 7 6 6 7 5 4 7 8 7 7 7 6 6 5 6 8 9 8 7 6 5 6 8 11 14 10 6 7 6 5 4 4 4 3 4 4 3 4 3 1 3 3 2 3 3 3 3 3
6 6 6 7 7 8 7 7 8 8 8 8 8 8 7 8 7 7 8 8 7 7 7 7 7 6 7 7 7 6 6 7 7 7 9 8 7 7 7 7 8 6 5 7 8 7 6 7 7 6 5 5 6 8 8 6 4 4 5 8 11 11 9 8 7 6 6 4 3 5 4 5 5 2 2 2 2 4 4 4 4 4 4 5 4
6 7 7 7 7 8 7 7 8 9 8 7 8 8 7 7 7 7 8 9 8 8 8 7 8 7 7 7 7 6 6 7 7 6 7 7 6 7 7 7 7 9 10 8 8 8 6 6 6 6 6 4 6 8 7 5 5 6 6 8 11 11 9 7 6 5 5 4 4 6 3 3 6 3 1 3 4 4 5 5 4 4 6 6 5
6 7 8 8 8 7 6 6 8 9 9 8 8 7 8 7 7 7 7 7 8 9 9 8 9 8 7 7 7 7 7 7 7 7 7 7 7 7 7 7 7 8 10 8 8 9 8 8 7 8 6 5 7 7 6 6 8 8 6 7 11 12 9 6 6 6 6 5 4 5 2 2 6 5 2 4 4 3 5 6 6 5 6 9 8
5 7 8 9 9 7 6 5 7 9 9 8 7 7 8 8 8 8 8 6 8 9 8 10 11 9 8 8 7 7 7 7 8 9 9 8 8 8 7 7 7 8 11 11 10 10 9 9 9 8 7 7 9 7 6 9 9 7 6 7 10 11 8 5 7 7 6 4 2 4 4 5 7 3 1 2 2 4 5 6 5 3 4 9 10
5 5 6 7 8 8 7 7 6 7 8 6 6 7 8 8 7 7 8 7 8 9 8 9 11 9 9 9 8 7 7 7 8 8 9 10 9 8 8 9 8 9 11 11 11 10 10 10 9 8 8 8 9 8 8 9 9 6 5 7 9 11 9 6 6 7 6 5 4 5 4 5 7 2 1 4 4 5 6 6 5 2 2 4 6
6 5 5 5 6 7 7 7 7 6 7 5 5 6 7 8 7 5 7 7 7 8 8 8 8 9 10 9 8 8 7 7 8 8 8 9 9 7 8 11 9 8 9 9 9 9 10 11 10 9 9 8 9 8 7 7 8 7 6 7 8 11 10 6 6 5 6 7 5 7 6 3 4 4 5 4 4 5 6 7 5 4 4 3 4
6 5 5 5 4 5 5 5 6 6 6 6 6 7 7 7 6 4 6 7 6 6 7 7 7 9 10 10 9 9 8 7 7 7 7 7 8 7 8 10 9 10 10 10 9 8 10 11 10 11 10 8 8 9 7 6 8 7 5 7 9 9 6 6 7 4 7 7 4 8 9 2 0 6 8 2 2 5 5 6 5 5 6 4 5
6 6 5 5 5 5 5 5 5 6 6 7 8 8 8 8 7 6 5 6 7 5 5 6 6 8 9 9 10 9 9 8 7 6 6 6 6 6 8 7 8 9 10 11 10 8 10 10 10 11 11 7 6 9 9 8 8 7 5 5 6 7 6 10 8 3 6 7 3 7 8 4 2 5 6 3 5 5 2 5 5 3 4 3 4
5 6 5 5 6 6 5 5 5 6 6 7 7 8 8 7 8 7 5 6 7 6 6 5 5 6 7 8 9 9 9 8 7 7 6 6 5 5 7 6 6 8 9 11 11 8 9 10 10 11 11 9 6 8 11 11 10 8 6 5 5 6 7 11 8 3 7 7 5 7 6 8 8 4 3 3 7 5 0 5 5 2 2 3 5
4 5 5 5 6 6 6 5 6 7 7 7 6 7 7 6 6 6 5 6 6 5 6 5 5 5 5 7 8 9 9 8 8 8 5 5 5 5 6 5 5 8 8 8 8 8 8 9 11 11 11 11 8 8 9 10 12 9 6 4 5 6 7 11 7 2 7 7 5 6 6 9 9 7 6 3 5 4 2 6 5 3 4 3 4
4 4 5 5 5 5 6 5 6 7 7 7 6 6 8 6 5 4 5 5 4 6 7 5 6 6 3 5 7 7 9 9 8 8 6 6 6 5 6 5 5 7 7 7 9 9 8 8 11 11 11 13 10 9 8 7 9 10 8 6 5 4 6 11 10 4 7 10 6 3 5 9 8 9 10 6 7 7 5 7 3 3 6 4 5
3 5 4 4 5 4 5 5 5 6 5 7 7 7 8 7 6 5 5 5 4 7 5 3 6 6 3 5 6 6 8 9 8 8 8 7 7 6 6 6 5 6 5 6 8 8 7 7 8 9 10 11 10 9 8 7 8 7 6 6 5 4 4 7 9 5 6 10 9 6 5 7 8 9 8 6 8 11 10 11 8 5 7 6 7
3 4 4 3 4 4 5 5 4 4 4 5 6 7 7 6 7 6 6 7 5 6 4 4 7 6 5 6 6 5 6 7 7 8 9 7 8 8 7 7 6 6 5 6 7 6 6 8 8 9 9 8 8 8 7 7 8 7 6 5 3 5 5 5 7 6 6 9 9 7 3 4 9 9 6 4 3 4 7 9 8 6 6 7 9
3 4 4 4 4 4 5 5 5 4 4 4 4 6 7 6 7 7 7 7 5 6 6 6 7 6 5 6 6 6 6 6 6 7 8 7 9 8 8 8 6 6 6 5 5 4 5 6 8 9 9 8 7 7 7 6 6 7 8 8 6 6 6 6 8 6 6 10 8 7 6 4 8 11 11 12 8 4 6 8 8 8 8 9 10
4 5 4 4 5 4 5 4 5 5 3 4 3 4 6 5 7 7 7 7 6 6 6 5 6 5 6 6 5 6 6 6 7 6 6 7 8 8 8 7 7 8 6 6 6 4 4 5 6 7 7 9 8 7 8 6 7 7 6 9 8 7 8 5 9 6 2 10 10 7 10 8 8 11 11 13 13 11 12 13 13 13 13 13 14
Height
5891 5891 5891 5892 5892 5892 5892 5892 5893 5893 5894 5895 5896 5896 5897 5897 5898 5900 5900 5901 5902 5902 5902 5901 5901 5902 5902 5902 5902 5903 5904 5904 5903 5902 5902 5902 5902 5903 5903 5903 5903 5904 5904 5905 5905 5905 5905 5905 5905 5905 5905 5906 5907 5907 5908 5908 5909 5908 5908 5908 5908 5908 5908 5908 5908 5908 5909 5909 5910 5910 5911 5912 5912 5912 5911 5912 5913 5913 5914 5914 5914 5914 5914 5915 5915
5892 5892 5892 5892 5893 5893 5894 5894 5895 5896 5896 5896 5896 5896 5897 5898 5899 5900 5901 5901 5902 5902 5902 5901 5901 5902 5903 5903 5903 5904 5904 5904 5903 5903 5902 5903 5903 5903 5903 5903 5903 5904 5905 5905 5906 5906 5906 5906 5905 5905 5906 5906 5907 5908 5908 5909 5910 5910 5909 5909 5909 5909 5909 5909 5909 5909 5909 5909 5909 5910 5911 5912 5912 5912 5912 5913 5913 5914 5914 5915 5915 5915 5916 5916 5916
5892 5893 5893 5893 5893 5894 5894 5895 5896 5896 5896 5896 5896 5896 5898 5899 5900 5901 5900 5900 5901 5902 5902 5902 5902 5902 5903 5904 5904 5904 5904 5904 5904 5903 5903 5903 5903 5903 5903 5904 5905 5905 5906 5906 5907 5907 5907 5907 5906 5906 5906 5906 5907 5908 5909 5909 5910 5910 5910 5910 5910 5910 5910 5910 5910 5909 5910 5910 5910 5911 5911 5912 5912 5913 5913 5913 5914 5915 5915 5916 5916 5916 5917 5917 5918
5893 5893 5893 5893 5893 5894 5895 5896 5896 5896 5896 5896 5896 5898 5899 5900 5901 5901 5901 5901 5902 5903 5903 5904 5904 5903 5904 5905 5906 5905 5904 5904 5904 5903 5903 5903 5903 5903 5904 5904 5905 5906 5906 5907 5907 5907 5907 5907 5907 5907 5907 5907 5907 5908 5909 5909 5910 5910 5911 5911 5911 5911 5911 5911 5911 5911 5911 5911 5912 5912 5913 5913 5914 5914 5914 5914 5915 5915 5916 5916 5917 5917 5918 5918 5919
5894 5893 5893 5893 5894 5895 5895 5896 5897 5897 5896 5897 5898 5900 5900 5901 5901 5901 5901 5902 5903 5904 5905 5905 5905 5905 5905 5906 5906 5905 5904 5904 5904 5904 5904 5904 5904 5905 5905 5905 5906 5907 5907 5908 5908 5908 5907 5907 5908 5908 5908 5908 5908 5909 5909 5910 5910 5911 5911 5911 5912 5912 5912 5912 5912 5912 5913 5913 5913 5914 5914 5915 5915 5915 5915 5915 5915 5916 5916 5917 5917 5918 5919 5919 5920
5894 5894 5894 5894 5895 5895 5896 5897 5897 5897 5897 5899 5900 5901 5901 5900 5900 5901 5902 5903 5903 5904 5905 5906 5906 5905 5905 5905 5905 5905 5904 5904 5905 5905 5905 5905 5905 5905 5905 5906 5906 5907 5907 5908 5908 5908 5908 5908 5908 5908 5909 5909 5909 5910 5910 5911 5911 5912 5912 5912 5912 5913 5913 5913 5913 5913 5914 5914 5915 5915 5916 5916 5916 5916 5916 5916 5917 5917 5917 5918 5919 5919 5920 5920 5921
5895 5895 5895 5895 5896 5896 5897 5898 5898 5898 5898 5900 5901 5901 5901 5901 5901 5902 5903 5903 5904 5904 5905 5906 5906 5905 5905 5905 5904 5904 5904 5904 5905 5905 5905 5905 5905 5905 5906 5906 5906 5907 5907 5908 5908 5909 5909 5908 5909 5909 5909 5910 5910 5911 5912 5912 5912 5913 5913 5913 5914 5914 5913 5914 5914 5914 5915 5916 5916 5916 5917 5917 5917 5918 5918 5918 5918 5918 5919 5919 5920 5920 5921 5921 5921
5896 5896 5896 5896 5897 5898 5898 5899 5899 5899 5900 5901 5902 5902 5901 5902 5903 5903 5903 5904 5904 5904 5904 5905 5905 5905 5905 5904 5904 5903 5903 5904 5904 5904 5904 5905 5905 5906 5906 5907 5907 5907 5908 5908 5908 5909 5909 5909 5909 5909 5910 5910 5911 5912 5912 5913 5914 5914 5914 5915 5915 5915 5915 5915 5915 5915 5916 5917 5917 5917 5918 5918 5918 5919 5919 5919 5919 5919 5920 5920 5921 5921 5922 5922 5922
5897 5897 5897 5898 5898 5899 5899 5900 5899 5900 5900 5902 5902 5902 5902 5903 5903 5903 5904 5904 5905 5904 5904 5904 5904 5904 5905 5904 5904 5903 5903 5903 5903 5903 5904 5906 5906 5906 5907 5907 5908 5908 5908 5907 5907 5908 5910 5910 5910 5910 5910 5911 5911 5912 5913 5914 5915 5915 5915 5916 5916 5917 5917 5916 5916 5917 5917 5918 5918 5918 5919 5920 5920 5920 5920 5920 5920 5921 5921 5922 5922 5922 5923 5923 5923
5898 5899 5899 5899 5899 5900 5900 5900 5900 5901 5902 5903 5903 5903 5904 5904 5905 5905 5905 5905 5905 5904 5904 5904 5904 5904 5904 5904 5904 5903 5904 5904 5904 5904 5905 5905 5906 5906 5907 5907 5908 5908 5908 5907 5908 5909 5911 5911 5910 5910 5911 5912 5912 5913 5914 5915 5916 5916 5916 5917 5917 5918 5918 5918 5918 5918 5918 5919 5919 5920 5920 5921 5921 5921 5921 5922 5922 5922 5923 5923 5923 5923 5923 5924 5924
5899 5900 5900 5900 5901 5901 5901 5901 5902 5902 5904 5905 5905 5906 5906 5906 5906 5906 5906 5906 5906 5905 5905 5904 5904 5904 5904 5904 5903 5903 5904 5905 5905 5904 5904 5905 5905 5906 5906 5907 5907 5907 5907 5908 5909 5910 5911 5911 5911 5911 5912 5913 5913 5914 5915 5916 5917 5918 5918 5918 5918 5919 5919 5920 5920 5920 5920 5921 5921 5921 5922 5922 5923 5923 5923 5923 5923 5924 5924 5924 5924 5924 5925 5925 5925
5900 5901 5902 5902 5903 5903 5903 5903 5903 5904 5906 5907 5907 5907 5907 5907 5906 5906 5906 5906 5906 5906 5905 5904 5904 5904 5904 5904 5904 5904 5904 5905 5906 5905 5905 5905 5906 5906 5906 5907 5908 5908 5909 5910 5910 5911 5911 5911 5911 5912 5913 5914 5914 5915 5916 5917 5918 5919 5919 5919 5919 5919 5920 5921 5921 5922 5922 5922 5923 5923 5923 5924 5924 5924 5925 5925 5925 5925 5925 5925 5926 5926 5926 5926 5926
5901 5902 5902 5903 5904 5904 5904 5904 5904 5905 5907 5907 5907 5908 5907 5907 5907 5907 5907 5907 5906 5906 5905 5905 5904 5904 5904 5905 5905 5905 5905 5906 5907 5907 5907 5907 5907 5908 5909 5910 5910 5910 5911 5911 5911 5911 5911 5911 5912 5912 5914 5915 5916 5916 5917 5918 5919 5920 5920 5920 5920 5921 5922 5922 5922 5923 5924 5924 5924 5924 5925 5925 5926 5926 5926 5926 5926 5926 5926 5927 5927 5927 5927 5927 5927
5901 5902 5903 5905 5906 5906 5905 5905 5905 5906 5907 5907 5907 5908 5907 5907 5907 5907 5907 5907 5906 5906 5906 5905 5905 5905 5905 5906 5907 5907 5906 5906 5907 5908 5908 5909 5909 5910 5911 5911 5911 5910 5910 5910 5910 5911 5911 5912 5913 5914 5915 5916 5917 5918 5919 5920 5920 5921 5921 5921 5921 5922 5923 5923 5923 5924 5925 5925 5926 5926 5927 5927 5927 5928 5928 5927 5927 5927 5928 5928 5928 5928 5928 5928 5928
5901 5902 5904 5907 5908 5907 5906 5906 5907 5908 5908 5907 5908 5908 5908 5908 5908 5908 5908 5908 5907 5907 5906 5906 5906 5906 5907 5908 5909 5909 5908 5908 5908 5908 5908 5909 5909 5910 5910 5910 5910 5909 5909 5909 5910 5911 5912 5913 5914 5915 5916 5918 5919 5919 5920 5921 5922 5922 5922 5922 5923 5923 5924 5924 5925 5925 5926 5926 5927 5928 5928 5929 5929 5929 5929 5928 5928 5929 5929 5929 5930 5930 5930 5930 5930
5902 5903 5906 5908 5908 5908 5908 5908 5909 5909 5909 5909 5909 5909 5909 5909 5909 5909 5909 5908 5908 5908 5908 5908 5908 5908 5908 5909 5910 5910 5910 5911 5910 5910 5909 5909 5910 5910 5909 5909 5910 5910 5910 5911 5912 5913 5914 5915 5916 5917 5918 5919 5920 5921 5921 5922 5923 5923 5923 5924 5924 5925 5925 5926 5926 5927 5927 5928 5928 5929 5930 5930 5930 5930 5930 5930 5930 5930 5931 5931 5931 5931 5931 5931 5931
5904 5905 5908 5909 5908 5908 5909 5910 5910 5910 5910 5910 5910 5910 5910 5911 5911 5910 5909 5909 5909 5909 5910 5910 5910 5910 5910 5910 5912 5912 5912 5912 5912 5912 5911 5911 5911 5911 5910 5911 5911 5912 5913 5913 5914 5915 5915 5916 5918 5919 5920 5921 5921 5922 5923 5923 5924 5925 5925 5925 5926 5926 5927 5927 5927 5928 5928 5929 5930 5930 5931 5931 5931 5931 5931 5931 5932 5932 5932 5932 5932 5932 5933 5933 5933
5905 5907 5909 5910 5909 5909 5910 5911 5911 5912 5912 5912 5913 5912 5912 5912 5912 5911 5911 5910 5910 5911 5911 5911 5912 5912 5911 5911 5912 5913 5914 5914 5914 5913 5913 5913 5913 5913 5913 5913 5913 5914 5914 5915 5916 5916 5917 5919 5919 5920 5921 5922 5923 5924 5924 5925 5926 5926 5927 5927 5928 5928 5929 5928 5929 5930 5930 5930 5931 5931 5932 5933 5933 5933 5933 5933 5933 5933 5933 5934 5934 5934 5934 5935 5935
5907 5909 5911 5910 5910 5910 5911 5912 5913 5913 5914 5914 5915 5914 5914 5913 5913 5913 5912 5912 5912 5912 5912 5913 5913 5914 5913 5913 5913 5914 5915 5915 5916 5915 5915 5915 5914 5915 5915 5915 5915 5916 5916 5917 5918 5918 5919 5920 5921 5922 5923 5924 5925 5925 5926 5927 5927 5928 5928 5929 5930 5930 5930 5931 5931 5931 5931 5932 5932 5933 5934 5934 5935 5934 5934 5934 5935 5935 5935 5935 5935 5936 5936 5936 5936
5908 5911 5913 5912 5912 5912 5913 5914 5914 5915 5915 5915 5916 5916 5915 5914 5914 5914 5914 5913 5914 5914 5914 5915 5915 5915 5915 5915 5915 5915 5916 5916 5917 5917 5916 5916 5916 5916 5917 5917 5917 5918 5918 5919 5920 5920 5921 5922 5923 5924 5925 5926 5926 5927 5928 5928 5929 5930 5930 5931 5931 5932 5932 5932 5933 5933 5933 5933 5934 5935 5936 5936 5936 5936 5936 5936 5936 5936 5937 5937 5937 5937 5937 5937 5937
5910 5913 5914 5913 5913 5913 5914 5915 5915 5916 5916 5917 5917 5916 5916 5915 5915 5915 5915 5915 5916 5916 5917 5917 5917 5917 5917 5917 5917 5917 5917 5917 5918 5918 5918 5918 5918 5918 5919 5919 5920 5920 5920 5921 5922 5922 5923 5924 5925 5926 5927 5927 5928 5929 5930 5930 5931 5931 5932 5932 5933 5933 5933 5934 5934 5934 5935 5935 5936 5937 5937 5938 5938 5937 5937 5937 5937 5938 5938 5938 5939 5939 5939 5938 5938
5911 5914 5915 5914 5913 5914 5916 5917 5917 5917 5917 5918 5918 5917 5917 5917 5917 5917 5917 5917 5917 5918 5919 5919 5919 5919 5919 5919 5919 5919 5919 5919 5919 5919 5919 5920 5920 5920 5921 5921 5921 5922 5922 5923 5923 5924 5925 5926 5927 5928 5928 5929 5930 5931 5932 5932 5932 5933 5933 5933 5934 5934 5935 5935 5935 5936 5936 5937 5937 5938 5939 5939 5939 5939 5939 5939 5939 5939 5940 5940 5940 5940 5940 5940 5940
5912 5915 5915 5914 5914 5915 5917 5918 5917 5917 5918 5919 5919 5919 5918 5918 5918 5918 5919 5919 5920 5920 5920 5920 5920 5920 5920 5920 5921 5921 5920 5920 5921 5921 5921 5921 5922 5922 5922 5923 5923 5923 5924 5924 5925 5926 5927 5928 5929 5930 5931 5931 5932 5933 5933 5934 5934 5934 5934 5935 5935 5936 5936 5936 5937 5937 5938 5939 5939 5940 5940 5940 5940 5940 5940 5940 5940 5941 5941 5941 5941 5941 5941 5941 5941
5913 5916 5917 5916 5915 5917 5919 5919 5918 5918 5919 5920 5920 5920 5919 5919 5919 5920 5920 5921 5922 5922 5922 5922 5922 5922 5922 5922 5922 5922 5922 5922 5922 5923 5923 5923 5924 5924 5924 5924 5925 5925 5926 5927 5927 5928 5929 5930 5931 5932 5933 5933 5934 5934 5935 5935 5935 5935 5936 5936 5937 5937 5938 5938 5938 5939 5940 5940 5941 5941 5942 5942 5942 5942 5942 5942 5942 5942 5943 5943 5943 5943 5943 5943 5943
5914 5916 5919 5919 5917 5918 5919 5920 5920 5920 5921 5921 5921 5921 5921 5921 5921 5921 5922 5922 5923 5923 5923 5923 5923 5924 5924 5924 5924 5924 5924 5923 5924 5925 5925 5925 5925 5926 5926 5927 5927 5927 5928 5929 5929 5930 5931 5932 5933 5934 5935 5935 5935 5936 5936 5936 5936 5937 5937 5938 5938 5939 5940 5940 5940 5940 5941 5941 5942 5942 5943 5943 5943 5943 5943 5943 5943 5944 5944 5944 5944 5944 5944 5944 5944
5915 5916 5918 5920 5920 5920 5919 5920 5922 5922 5922 5923 5923 5923 5923 5922 5922 5923 5923 5924 5925 5925 5925 5925 5925 5925 5925 5926 5926 5926 5926 5926 5926 5926 5927 5927 5927 5928 5928 5929 5929 5930 5930 5931 5932 5932 5933 5934 5934 5935 5936 5936 5937 5937 5937 5937 5938 5938 5939 5940 5940 5941 5941 5941 5941 5942 5942 5943 5943 5944 5944 5944 5944 5944 5944 5945 5945 5945 5946 5946 5946 5946 5946 5946 5946
5916 5916 5917 5919 5921 5922 5921 5921 5922 5923 5923 5924 5924 5924 5924 5924 5923 5924 5924 5925 5926 5926 5926 5926 5926 5927 5927 5928 5928 5928 5928 5928 5928 5928 5929 5929 5930 5930 5931 5931 5931 5932 5932 5933 5933 5934 5935 5935 5936 5937 5937 5938 5938 5939 5939 5939 5939 5940 5940 5941 5941 5942 5942 5942 5943 5943 5944 5944 5945 5945 5945 5945 5945 5946 5946 5946 5947 5947 5947 5947 5947 5947 5947 5948 5948
5917 5917 5917 5919 5921 5922 5922 5922 5922 5923 5924 5925 5925 5925 5925 5925 5925 5925 5925 5926 5927 5927 5928 5928 5928 5928 5929 5929 5930 5930 5930 5930 5930 5930 5931 5931 5932 5932 5932 5933 5933 5934 5934 5934 5934 5935 5936 5937 5938 5939 5939 5940 5940 5940 5940 5941 5942 5942 5942 5943 5943 5943 5944 5944 5944 5945 5946 5946 5947 5947 5947 5947 5947 5947 5947 5948 5948 5948 5948 5948 5948 5949 5949 5949 5949
5919 5919 5919 5920 5921 5921 5922 5923 5923 5924 5925 5925 5925 5926 5926 5926 5927 5927 5927 5927 5928 5928 5929 5929 5930 5930 5930 5931 5932 5932 5932 5932 5932 5933 5933 5933 5934 5934 5934 5935 5935 5936 5936 5936 5936 5937 5938 5939 5940 5940 5941 5941 5941 5941 5942 5943 5943 5943 5944 5944 5945 5945 5946 5946 5946 5947 5947 5948 5948 5948 5948 5949 5949 5949 5949 5949 5949 5949 5950 5950 5950 5950 5950 5950 5950
5921 5921 5921 5921 5922 5922 5922 5923 5924 5924 5925 5926 5926 5926 5926 5927 5928 5928 5928 5928 5929 5929 5930 5931 5931 5932 5932 5932 5933 5933 5934 5934 5935 5935 5935 5935 5936 5937 5937 5938 5938 5939 5938 5938 5938 5939 5940 5941 5941 5943 5943 5942 5942 5943 5943 5944 5944 5944 5945 5946 5947 5947 5948 5948 5948 5948 5949 5949 5950 5950 5951 5951 5951 5951 5951 5951 5951 5951 5951 5951 5951 5951 5951 5951 5951
5922 5922 5923 5923 5924 5924 5924 5924 5925 5925 5926 5926 5927 5927 5928 5928 5929 5929 5929 5930 5931 5931 5931 5932 5933 5933 5933 5934 5934 5934 5935 5936 5936 5937 5937 5937 5938 5939 5939 5939 5940 5940 5939 5940 5940 5941 5942 5942 5943 5944 5945 5945 5945 5945 5945 5946 5946 5946 5946 5947 5948 5949 5949 5950 5950 5950 5950 5950 5951 5952 5953 5953 5953 5953 5953 5953 5953 5953 5953 5952 5952 5952 5952 5952 5952
5924 5924 5924 5925 5926 5926 5926 5926 5926 5926 5927 5928 5928 5929 5930 5930 5930 5930 5931 5932 5933 5933 5934 5934 5934 5935 5935 5935 5936 5936 5936 5937 5937 5938 5938 5939 5939 5940 5940 5940 5940 5941 5941 5942 5943 5943 5944 5944 5945 5946 5947 5947 5946 5946 5947 5947 5947 5948 5948 5949 5950 5950 5950 5951 5952 5952 5952 5953 5953 5954 5955 5954 5954 5955 5955 5955 5955 5954 5954 5954 5954 5954 5954 5954 5954
5924 5925 5926 5927 5927 5928 5928 5928 5928 5928 5929 5929 5930 5931 5932 5932 5932 5933 5933 5934 5934 5935 5935 5936 5936 5937 5937 5937 5937 5938 5938 5938 5939 5939 5940 5941 5941 5942 5942 5942 5942 5942 5943 5943 5944 5945 5945 5945 5946 5947 5948 5949 5948 5948 5948 5948 5949 5949 5950 5951 5952 5952 5952 5953 5954 5954 5955 5956 5956 5956 5957 5957 5956 5956 5957 5957 5957 5956 5956 5955 5955 5955 5956 5955 5955
5925 5926 5927 5928 5929 5929 5930 5930 5930 5930 5931 5931 5932 5933 5933 5934 5934 5935 5935 5935 5936 5936 5937 5937 5938 5938 5939 5939 5939 5939 5939 5940 5940 5941 5942 5943 5943 5943 5944 5944 5944 5944 5945 5945 5945 5946 5946 5947 5948 5948 5949 5951 5951 5950 5950 5950 5950 5951 5951 5953 5953 5954 5954 5955 5956 5957 5957 5958 5959 5959 5959 5959 5959 5958 5958 5959 5959 5959 5958 5957 5957 5957 5957 5957 5956
5926 5927 5928 5929 5930 5931 5931 5932 5932 5932 5933 5933 5934 5934 5935 5935 5936 5936 5936 5936 5937 5937 5938 5938 5939 5939 5940 5940 5940 5941 5941 5941 5942 5943 5943 5944 5945 5945 5945 5945 5945 5945 5946 5947 5947 5948 5948 5949 5949 5950 5951 5952 5952 5951 5951 5951 5951 5952 5953 5954 5955 5956 5956 5957 5957 5958 5958 5960 5961 5961 5961 5961 5961 5960 5960 5960 5960 5960 5961 5960 5959 5959 5958 5958 5958
5927 5928 5929 5929 5930 5931 5932 5933 5934 5934 5935 5935 5936 5936 5937 5937 5937 5937 5938 5938 5938 5938 5939 5939 5940 5940 5941 5941 5941 5942 5942 5943 5943 5944 5945 5946 5946 5946 5946 5946 5946 5946 5947 5948 5949 5949 5950 5951 5951 5952 5953 5953 5954 5953 5952 5952 5952 5953 5954 5955 5956 5956 5958 5958 5958 5959 5960 5961 5962 5962 5962 5963 5962 5962 5962 5962 5962 5962 5962 5963 5962 5962 5961 5960 5960
5928 5929 5929 5930 5931 5932 5933 5934 5935 5936 5936 5937 5937 5938 5938 5939 5939 5939 5939 5939 5940 5940 5940 5941 5941 5942 5942 5942 5943 5943 5943 5944 5944 5945 5946 5946 5946 5946 5946 5946 5947 5948 5948 5949 5950 5951 5951 5952 5953 5953 5953 5954 5954 5954 5953 5952 5952 5954 5955 5956 5956 5957 5958 5959 5960 5961 5962 5962 5962 5963 5963 5963 5963 5964 5964 5964 5964 5964 5964 5964 5964 5964 5963 5963 5962
5929 5930 5930 5931 5932 5933 5934 5935 5936 5937 5938 5938 5939 5940 5940 5940 5940 5940 5940 5941 5941 5942 5942 5942 5943 5943 5943 5944 5944 5945 5945 5945 5945 5945 5946 5946 5946 5947 5947 5947 5948 5949 5950 5950 5950 5952 5952 5953 5953 5954 5954 5955 5955 5956 5956 5955 5954 5954 5955 5957 5957 5958 5958 5959 5960 5961 5962 5962 5962 5963 5964 5964 5964 5965 5965 5966 5966 5966 5966 5965 5965 5965 5965 5964 5963
5930 5931 5932 5932 5933 5934 5935 5936 5937 5938 5939 5939 5940 5940 5941 5941 5942 5941 5941 5941 5942 5942 5943 5944 5944 5945 5945 5946 5946 5946 5947 5946 5946 5946 5946 5947 5947 5948 5948 5948 5949 5950 5951 5952 5952 5952 5953 5954 5954 5955 5955 5955 5956 5957 5957 5956 5956 5955 5956 5957 5958 5959 5959 5959 5960 5961 5962 5962 5962 5963 5965 5965 5965 5966 5967 5967 5967 5967 5967 5966 5966 5965 5965 5964 5964
5931 5932 5932 5933 5934 5935 5936 5937 5938 5939 5939 5940 5940 5941 5941 5942 5943 5943 5943 5942 5942 5943 5944 5945 5946 5946 5947 5947 5948 5948 5948 5948 5948 5948 5948 5948 5949 5949 5949 5949 5951 5952 5953 5954 5954 5954 5954 5955 5955 5956 5956 5957 5958 5959 5958 5957 5957 5956 5957 5958 5959 5960 5960 5960 5960 5961 5962 5963 5963 5964 5965 5967 5967 5967 5968 5968 5968 5968 5968 5967 5966 5966 5965 5965 5965
5932 5932 5933 5934 5935 5936 5937 5938 5939 5939 5940 5940 5941 5941 5942 5943 5944 5944 5944 5944 5944 5944 5945 5946 5946 5947 5948 5948 5949 5949 5950 5950 5949 5950 5950 5950 5950 5951 5951 5951 5952 5953 5953 5954 5955 5955 5955 5956 5956 5957 5957 5958 5959 5959 5959 5958 5958 5958 5959 5960 5961 5963 5963 5962 5962 5963 5963 5964 5964 5965 5966 5967 5968 5968 5969 5970 5970 5969 5969 5968 5967 5966 5966 5966 5965
5932 5933 5934 5935 5936 5937 5938 5939 5939 5940 5940 5941 5941 5942 5943 5944 5944 5945 5945 5946 5945 5945 5946 5946 5947 5948 5949 5949 5950 5950 5951 5951 5951 5951 5952 5952 5952 5952 5951 5952 5953 5954 5954 5955 5955 5955 5955 5956 5956 5957 5957 5958 5958 5959 5959 5959 5959 5960 5961 5962 5964 5965 5965 5965 5965 5965 5965 5966 5966 5967 5967 5968 5968 5969 5970 5970 5970 5970 5970 5969 5968 5967 5967 5966 5966
5932 5933 5934 5935 5936 5937 5938 5939 5940 5941 5941 5941 5942 5943 5944 5944 5944 5945 5946 5947 5947 5947 5947 5948 5948 5949 5950 5950 5951 5951 5952 5952 5952 5952 5953 5953 5953 5953 5953 5953 5953 5954 5954 5955 5955 5956 5956 5956 5956 5957 5958 5958 5959 5959 5960 5960 5961 5962 5962 5963 5965 5966 5967 5966 5966 5966 5967 5967 5968 5968 5968 5968 5968 5969 5970 5970 5971 5971 5970 5969 5969 5968 5968 5967 5966
5933 5934 5935 5936 5937 5938 5939 5940 5941 5941 5942 5942 5943 5944 5945 5945 5945 5946 5947 5948 5948 5948 5949 5949 5950 5950 5951 5951 5952 5952 5953 5953 5953 5953 5954 5954 5954 5954 5954 5954 5954 5954 5955 5955 5956 5956 5957 5957 5957 5958 5958 5959 5959 5960 5961 5962 5962 5962 5962 5963 5965 5967 5967 5966 5966 5968 5968 5968 5969 5969 5969 5969 5970 5970 5970 5970 5970 5970 5970 5970 5969 5968 5968 5967 5966
5933 5934 5935 5936 5937 5938 5939 5940 5941 5942 5942 5943 5943 5944 5945 5945 5945 5947 5947 5948 5948 5949 5950 5950 5951 5951 5952 5952 5953 5953 5954 5954 5954 5954 5955 5955 5955 5955 5956 5955 5955 5955 5955 5956 5956 5957 5957 5958 5958 5958 5959 5959 5960 5961 5962 5963 5964 5964 5963 5964 5965 5966 5967 5966 5966 5968 5969 5969 5969 5969 5970 5971 5971 5971 5970 5970 5970 5970 5970 5970 5969 5968 5968 5967 5966
5933 5934 5935 5936 5937 5939 5940 5940 5941 5942 5943 5943 5943 5944 5945 5946 5946 5947 5948 5948 5949 5950 5950 5951 5952 5952 5953 5953 5954 5954 5955 5955 5956 5956 5956 5956 5956 5956 5957 5956 5956 5957 5957 5957 5957 5957 5958 5959 5959 5959 5960 5960 5961 5962 5963 5964 5965 5966 5965 5965 5966 5966 5967 5967 5967 5967 5969 5969 5969 5969 5971 5971 5971 5971 5971 5971 5970 5970 5970 5969 5968 5968 5967 5966 5966
5933 5934 5935 5936 5937 5939 5940 5941 5942 5943 5943 5944 5944 5944 5945 5946 5947 5948 5948 5949 5949 5950 5951 5952 5952 5953 5954 5954 5955 5955 5956 5956 5957 5957 5957 5957 5957 5957 5958 5957 5958 5958 5958 5958 5958 5958 5959 5960 5960 5961 5961 5962 5962 5963 5964 5965 5966 5967 5967 5966 5966 5966 5966 5967 5967 5967 5968 5969 5969 5968 5969 5971 5971 5971 5971 5971 5970 5970 5969 5968 5968 5967 5967 5966 5966
5932 5934 5935 5936 5937 5938 5940 5941 5942 5943 5943 5944 5944 5945 5946 5947 5948 5948 5949 5949 5950 5950 5951 5952 5953 5954 5955 5955 5956 5956 5957 5957 5958 5958 5958 5958 5958 5958 5959 5959 5959 5959 5959 5959 5959 5960 5960 5961 5962 5962 5963 5963 5963 5964 5965 5965 5966 5966 5966 5966 5966 5966 5966 5966 5967 5967 5967 5968 5969 5969 5969 5970 5971 5971 5971 5970 5970 5970 5969 5968 5967 5967 5967 5967 5966
5932 5933 5934 5935 5937 5938 5939 5941 5942 5943 5944 5944 5945 5945 5946 5947 5948 5949 5950 5950 5950 5951 5952 5953 5953 5954 5955 5955 5956 5957 5957 5958 5958 5959 5959 5959 5959 5959 5959 5959 5959 5959 5960 5960 5960 5961 5961 5962 5962 5963 5963 5964 5964 5965 5965 5965 5966 5966 5966 5966 5966 5966 5966 5966 5966 5966 5966 5967 5968 5968 5968 5969 5970 5970 5970 5970 5970 5969 5969 5968 5968 5968 5968 5967 5966
5932 5933 5934 5935 5936 5938 5939 5941 5942 5943 5944 5944 5945 5945 5946 5947 5948 5949 5950 5950 5951 5951 5952 5953 5953 5954 5955 5956 5957 5957 5958 5958 5958 5959 5959 5959 5959 5959 5960 5960 5960 5960 5960 5960 5960 5960 5961 5962 5962 5963 5964 5964 5964 5965 5966 5966 5966 5967 5967 5967 5967 5968 5968 5967 5967 5966 5966 5967 5967 5968 5968 5969 5970 5971 5970 5970 5969 5968 5968 5968 5968 5968 5967 5966 5965
5931 5932 5933 5935 5936 5937 5939 5940 5942 5943 5944 5944 5945 5946 5946 5947 5948 5949 5950 5950 5951 5952 5953 5953 5953 5954 5955 5955 5956 5957 5957 5958 5958 5959 5959 5959 5959 5960 5960 5960 5960 5960 5960 5960 5960 5960 5960 5961 5962 5963 5964 5964 5965 5965 5966 5966 5966 5967 5968 5968 5968 5968 5968 5969 5970 5969 5968 5967 5968 5968 5968 5969 5969 5970 5970 5970 5969 5968 5968 5968 5968 5967 5966 5965 5965